Weather History for New Richmond, WI

Change the Weather History Date:

Tuesday, July 8, 2014

  Actual Average (KMSP) Record (KMSP)
Temperature  
Mean Temperature 66 °F 74 °F  
Max Temperature 73 °F 84 °F 101 °F (1974)
Min Temperature 59 °F 64 °F 51 °F (1958)
Degree Days  
Heating Degree Days 0 0  
Month to date heating degree days 0  
Since 1 June heating degree days 44  
Since 1 July heating degree days 0  
Cooling Degree Days 1 9  
Month to date cooling degree days 70  
Year to date cooling degree days 270  
Since 1 June cooling degree days 228  
Growing Degree Days 16 (Base 50)    
Moisture  
Dew Point 56 °F    
Average Humidity 73    
Maximum Humidity 99    
Minimum Humidity 47    
Precipitation  
Precipitation 0.08 in 0.12 in 3.07 in (1925)
Month to date precipitation 1.01  
Year to date precipitation 14.84  
Snow  
Snow 0.00 in 0.00 in 0.00 in ()
Month to date snowfall 0.0  
Since 1 June snowfall 0.0  
Since 1 July snowfall 0.0  
Snow Depth -    
Sea Level Pressure  
Sea Level Pressure 29.77 in    
Wind  
Wind Speed 8 mph (WNW)    
Max Wind Speed 20 mph    
Max Gust Speed 28 mph    
Visibility 10 miles    
Events      
T = Trace of Precipitation, MM = Missing Value Source: NWS Daily Summary

Daily Weather History Graph

Daily Weather History Graph

Search for Another Location

Airport:

Trip Planner

Search our weather history database for the weather conditions in past years. The results will help you decide how hot, cold, wet, or windy it might be!

Date:

Astronomy

Jul. 08, 2014 Rise Set
Actual Time 5:31 AM CDT 8:58 PM CDT
Civil Twilight 4:54 AM CDT 9:35 PM CDT
Nautical Twilight 4:06 AM CDT 10:23 PM CDT
Astronomical Twilight 3:03 AM CDT 11:25 PM CDT
Moon 5:01 PM CDT (7/8) 2:10 AM CDT (7/8)
Length of Visible Light 16h 40m
Length of Day
15h 27m
Waxing Gibbous, 81% of the Moon is Illuminated
Jul 8
Waxing Gibbous
Jul 12
Full
Jul 18
Last Quarter
Jul 26
New
Aug 3
First Quarter

Hourly Weather History & Observations

Time (CDT) Temp. Dew Point Humidity Pressure Visibility Wind Dir Wind Speed Gust Speed Precip Events Conditions
12:15 AM 62.8 °F 62.4 °F 99% 29.65 in 10.0 mi West 4.6 mph - N/A   Clear
12:35 AM 61.7 °F 61.2 °F 98% 29.65 in 10.0 mi West 5.8 mph - N/A   Clear
12:55 AM 61.7 °F 61.3 °F 99% 29.66 in 10.0 mi WSW 3.5 mph - N/A   Clear
1:15 AM 61.9 °F 61.7 °F 99% 29.66 in 10.0 mi Calm Calm - N/A   Mostly Cloudy
1:35 AM 61.3 °F 61.0 °F 99% 29.67 in 10.0 mi SSW 4.6 mph - N/A   Scattered Clouds
1:55 AM 61.9 °F 61.7 °F 99% 29.67 in 10.0 mi SW 4.6 mph - N/A   Scattered Clouds
2:15 AM 62.1 °F 61.9 °F 99% 29.68 in 10.0 mi SSW 4.6 mph - N/A   Clear
2:35 AM 62.1 °F 61.9 °F 99% 29.68 in 10.0 mi WSW 5.8 mph - N/A   Clear
2:55 AM 62.2 °F 61.7 °F 98% 29.67 in 10.0 mi West 5.8 mph - N/A   Clear
3:15 AM 61.7 °F 60.8 °F 97% 29.68 in 10.0 mi West 5.8 mph - N/A   Clear
3:35 AM 61.3 °F 60.1 °F 96% 29.69 in 10.0 mi West 6.9 mph - N/A   Scattered Clouds
3:55 AM 61.5 °F 59.7 °F 94% 29.69 in 10.0 mi West 8.1 mph - N/A   Mostly Cloudy
4:15 AM 61.0 °F 59.2 °F 94% 29.68 in 10.0 mi WNW 4.6 mph - N/A   Mostly Cloudy
4:35 AM 60.8 °F 59.2 °F 94% 29.69 in 10.0 mi West 6.9 mph - N/A   Overcast
4:55 AM 60.8 °F 59.0 °F 94% 29.70 in 10.0 mi WNW 8.1 mph - N/A   Mostly Cloudy
5:15 AM 60.3 °F 58.5 °F 94% 29.70 in 10.0 mi West 4.6 mph - N/A   Scattered Clouds
5:55 AM 59.4 °F 58.1 °F 96% 29.70 in 10.0 mi West 8.1 mph - N/A   Clear
6:15 AM 59.5 °F 57.7 °F 94% 29.70 in 10.0 mi WNW 8.1 mph - N/A   Clear
6:35 AM 59.5 °F 57.6 °F 93% 29.72 in 10.0 mi West 9.2 mph - N/A   Clear
6:55 AM 59.9 °F 57.6 °F 92% 29.71 in 10.0 mi WNW 8.1 mph - N/A   Clear
7:15 AM 59.9 °F 57.9 °F 93% 29.72 in 10.0 mi WNW 9.2 mph - N/A   Clear
7:35 AM 60.4 °F 58.1 °F 92% 29.73 in 10.0 mi WNW 9.2 mph - N/A   Clear
7:55 AM 61.5 °F 58.6 °F 90% 29.74 in 10.0 mi WNW 8.1 mph - N/A   Clear
8:15 AM 62.2 °F 58.6 °F 88% 29.74 in 10.0 mi NW 8.1 mph - N/A   Scattered Clouds
8:35 AM 63.0 °F 58.8 °F 86% 29.74 in 10.0 mi NW 8.1 mph - N/A   Mostly Cloudy
8:55 AM 64.0 °F 58.8 °F 83% 29.75 in 10.0 mi NW 11.5 mph 18.4 mph N/A   Mostly Cloudy
9:15 AM 64.4 °F 58.5 °F 81% 29.75 in 10.0 mi NW 9.2 mph 17.3 mph N/A   Scattered Clouds
9:35 AM 66.6 °F 58.5 °F 75% 29.75 in 10.0 mi WNW 13.8 mph 19.6 mph N/A   Scattered Clouds
9:55 AM 65.8 °F 57.9 °F 76% 29.75 in 10.0 mi NW 10.4 mph 17.3 mph N/A   Mostly Cloudy
10:15 AM 66.4 °F 55.8 °F 69% 29.76 in 10.0 mi WNW 16.1 mph 23.0 mph N/A   Mostly Cloudy
10:35 AM 67.5 °F 55.9 °F 66% 29.76 in 10.0 mi NW 13.8 mph 21.9 mph N/A   Scattered Clouds
10:55 AM 68.5 °F 55.6 °F 63% 29.76 in 10.0 mi WNW 12.7 mph 21.9 mph N/A   Scattered Clouds
11:15 AM 70.0 °F 57.0 °F 63% 29.77 in 10.0 mi NW 12.7 mph 24.2 mph N/A   Scattered Clouds
11:35 AM 69.3 °F 56.1 °F 63% 29.77 in 10.0 mi NW 15.0 mph 20.7 mph N/A   Mostly Cloudy
11:55 AM 69.8 °F 55.2 °F 60% 29.77 in 10.0 mi NW 15.0 mph 20.7 mph N/A   Scattered Clouds
12:15 PM 69.6 °F 53.8 °F 57% 29.78 in 10.0 mi NW 10.4 mph 25.3 mph N/A   Mostly Cloudy
12:35 PM 70.5 °F 54.9 °F 58% 29.78 in 10.0 mi WNW 12.7 mph 21.9 mph N/A   Scattered Clouds
12:55 PM 68.7 °F 53.8 °F 59% 29.78 in 10.0 mi WNW 13.8 mph 21.9 mph N/A   Mostly Cloudy
1:15 PM 70.3 °F 56.5 °F 61% 29.78 in 10.0 mi WNW 11.5 mph - N/A   Scattered Clouds
1:35 PM 70.5 °F 52.0 °F 52% 29.78 in 10.0 mi WNW 17.3 mph 27.6 mph N/A   Scattered Clouds
1:55 PM 71.8 °F 52.3 °F 50% 29.78 in 10.0 mi WNW 17.3 mph 23.0 mph N/A   Mostly Cloudy
2:15 PM 72.1 °F 53.2 °F 51% 29.79 in 10.0 mi WNW 16.1 mph 26.5 mph N/A   Mostly Cloudy
2:35 PM 72.7 °F 54.1 °F 52% 29.79 in 10.0 mi WNW 16.1 mph 24.2 mph N/A   Scattered Clouds
2:55 PM 73.2 °F 53.1 °F 49% 29.79 in 10.0 mi WNW 17.3 mph 24.2 mph N/A   Clear
3:15 PM 72.5 °F 54.5 °F 53% 29.80 in 10.0 mi NW 17.3 mph 27.6 mph N/A   Scattered Clouds
3:35 PM 72.0 °F 54.0 °F 53% 29.80 in 10.0 mi NW 12.7 mph 18.4 mph N/A   Mostly Cloudy
3:55 PM 72.0 °F 53.4 °F 52% 29.80 in 10.0 mi WNW 15.0 mph 24.2 mph N/A   Mostly Cloudy
4:15 PM 72.9 °F 52.9 °F 49% 29.81 in 10.0 mi WNW 19.6 mph 25.3 mph N/A   Scattered Clouds
4:35 PM 73.2 °F 52.9 °F 49% 29.81 in 10.0 mi NW 11.5 mph 21.9 mph N/A   Scattered Clouds
5:15 PM 72.7 °F 53.1 °F 50% 29.82 in 10.0 mi WNW 17.3 mph 21.9 mph N/A   Scattered Clouds
5:35 PM 70.7 °F 52.2 °F 52% 29.82 in 10.0 mi NW 12.7 mph 23.0 mph N/A   Scattered Clouds
5:55 PM 71.4 °F 52.0 °F 50% 29.83 in 10.0 mi WNW 12.7 mph 19.6 mph N/A   Scattered Clouds
6:15 PM 71.6 °F 51.6 °F 49% 29.83 in 10.0 mi NW 12.7 mph 24.2 mph N/A   Scattered Clouds
6:35 PM 70.7 °F 49.5 °F 47% 29.83 in 10.0 mi NW 13.8 mph 19.6 mph N/A   Scattered Clouds
7:15 PM 70.0 °F 49.6 °F 48% 29.84 in 10.0 mi NW 11.5 mph - N/A   Clear
7:35 PM 69.8 °F 48.7 °F 47% 29.85 in 10.0 mi NW 9.2 mph 19.6 mph N/A   Clear
7:55 PM 68.5 °F 50.0 °F 52% 29.85 in 10.0 mi NW 8.1 mph - N/A   Clear
8:15 PM 67.3 °F 50.9 °F 56% 29.85 in 10.0 mi WNW 6.9 mph - N/A   Clear
8:35 PM 66.4 °F 50.9 °F 57% 29.86 in 10.0 mi WNW 8.1 mph - N/A   Scattered Clouds
8:55 PM 65.1 °F 51.4 °F 61% 29.87 in 10.0 mi West 5.8 mph - N/A   Overcast
9:15 PM 63.5 °F 51.8 °F 66% 29.87 in 10.0 mi WNW 6.9 mph - N/A   Scattered Clouds
9:35 PM 63.0 °F 52.7 °F 69% 29.88 in 10.0 mi WNW 5.8 mph - N/A   Mostly Cloudy
9:55 PM 63.5 °F 52.7 °F 68% 29.88 in 10.0 mi NW 6.9 mph - N/A   Overcast
10:15 PM 63.9 °F 51.8 °F 65% 29.89 in 10.0 mi NNW 9.2 mph - N/A   Scattered Clouds
10:35 PM 64.4 °F 51.4 °F 63% 29.89 in 10.0 mi NNW 9.2 mph - N/A   Mostly Cloudy
10:55 PM 63.5 °F 52.0 °F 66% 29.90 in 10.0 mi NNW 5.8 mph - N/A   Mostly Cloudy
11:35 PM 59.9 °F 53.2 °F 79% 29.90 in 10.0 mi NNW 5.8 mph - N/A   Scattered Clouds
11:55 PM 59.2 °F 53.2 °F 81% 29.90 in 10.0 mi NNW 4.6 mph - N/A   Clear